Total_Precipitation_Accumulation
0.22 0.30 0.33 0.37 0.32 0.27 0.24 0.25 0.41 0.51 0.63 0.77 0.75 0.85 1.15 0.99 0.89 0.84 0.82 0.73 0.69 0.80 1.00 1.11 1.13 1.12 1.24 1.40 1.54 1.67 1.79 1.94 2.22 2.51 2.36 2.08 2.01 1.97 1.95 2.04 2.18 2.49 2.67 2.77
0.19 0.26 0.29 0.32 0.33 0.29 0.24 0.24 0.25 0.39 0.61 0.71 0.80 0.85 0.97 0.97 0.99 1.01 0.91 0.88 0.90 1.06 1.09 1.16 1.26 1.24 1.24 1.29 1.39 1.57 1.72 1.87 2.08 2.19 2.04 1.82 1.69 1.75 1.82 1.95 2.14 2.34 2.49 2.61
0.32 0.27 0.32 0.37 0.33 0.31 0.26 0.31 0.32 0.44 0.63 0.72 0.92 0.90 0.91 1.08 1.14 1.06 0.88 0.91 0.96 1.05 1.22 1.22 1.28 1.31 1.29 1.34 1.52 1.69 1.75 1.78 1.90 2.01 2.06 1.97 1.73 1.77 1.90 2.04 2.17 2.25 2.30 2.33
0.49 0.50 0.62 0.50 0.41 0.37 0.35 0.39 0.40 0.48 0.61 0.71 0.91 0.92 0.81 0.86 0.93 1.01 1.04 1.11 1.08 1.09 1.20 1.20 1.19 1.26 1.25 1.26 1.52 1.77 1.82 1.85 1.95 2.09 2.13 2.11 2.05 2.02 2.14 2.26 2.28 2.29 2.36 2.38
0.70 0.69 0.61 0.59 0.57 0.56 0.63 0.80 0.72 0.65 0.66 0.71 0.76 0.89 0.96 0.88 0.86 1.01 1.10 1.29 1.31 1.21 1.33 1.42 1.45 1.46 1.47 1.47 1.66 1.91 1.99 2.00 2.07 2.23 2.30 2.33 2.41 2.44 2.52 2.53 2.40 2.38 2.51 2.57
0.79 0.90 0.89 0.85 0.69 0.63 0.82 1.33 1.18 0.94 0.83 0.79 0.87 1.33 1.56 1.34 1.15 1.12 1.07 1.24 1.45 1.43 1.32 1.39 1.47 1.68 1.82 1.84 1.95 2.06 2.16 2.24 2.28 2.45 2.59 2.57 2.67 2.82 2.96 2.99 2.85 2.87 2.75 2.61
0.86 1.00 1.05 0.92 0.70 0.75 1.40 1.79 1.40 1.21 1.17 1.12 1.26 1.36 1.39 1.21 1.13 1.13 1.11 1.16 1.31 1.53 1.41 1.40 1.54 1.81 1.98 2.02 2.20 2.28 2.34 2.41 2.45 2.61 2.77 2.91 3.12 3.32 3.36 3.30 3.29 3.19 2.91 2.78
1.08 1.33 1.41 0.93 0.89 1.25 1.58 1.35 1.37 1.47 1.64 1.61 1.38 1.16 1.12 1.15 1.08 1.15 1.14 1.16 1.19 1.24 1.34 1.44 1.60 1.94 2.12 2.09 2.14 2.30 2.43 2.53 2.69 2.81 2.83 2.95 3.33 3.47 3.48 3.46 3.33 3.14 2.98 2.74
1.32 1.52 1.32 1.10 1.19 1.23 1.35 1.43 1.47 1.59 1.71 1.58 1.34 1.19 1.18 1.21 1.12 1.09 1.08 1.14 1.16 1.19 1.33 1.52 1.78 2.04 2.32 2.37 2.29 2.28 2.40 2.55 2.73 2.87 3.08 3.33 3.53 3.54 3.51 3.49 3.34 3.14 2.96 2.72
1.55 1.55 1.29 1.25 1.29 1.25 1.34 1.42 1.53 1.51 1.50 1.49 1.41 1.27 1.27 1.23 1.13 1.14 1.16 1.16 1.18 1.33 1.53 1.70 1.92 2.07 2.34 2.29 2.20 2.25 2.28 2.42 2.55 2.65 2.73 2.89 3.17 3.17 3.05 3.03 3.07 3.05 2.96 2.81
1.78 1.77 1.68 1.65 1.62 1.50 1.44 1.41 1.44 1.47 1.43 1.47 1.46 1.42 1.27 1.26 1.25 1.14 1.14 1.26 1.30 1.50 1.82 1.97 1.99 2.00 2.06 2.03 2.04 2.05 2.07 2.15 2.19 2.23 2.31 2.43 2.54 2.66 2.66 2.64 2.63 2.65 2.63 2.58
2.09 1.89 1.84 2.07 1.98 1.77 1.56 1.52 1.60 1.55 1.48 1.49 1.52 1.55 1.38 1.31 1.30 1.18 1.21 1.34 1.46 1.55 1.73 1.88 2.05 2.17 2.19 2.13 2.17 2.18 2.08 2.05 2.07 2.12 2.17 2.18 2.26 2.32 2.35 2.22 2.09 1.99 1.94 1.94
1.88 1.76 1.74 1.83 1.84 1.70 1.58 1.59 1.73 1.78 1.68 1.56 1.56 1.55 1.46 1.35 1.32 1.30 1.31 1.39 1.51 1.54 1.61 1.74 1.89 2.00 2.21 2.37 2.44 2.44 2.33 2.25 2.17 2.10 2.11 2.13 2.15 2.22 2.20 2.09 1.95 1.79 1.69 1.61
1.89 1.85 1.87 1.79 1.75 1.62 1.49 1.53 1.65 1.64 1.68 1.63 1.62 1.59 1.49 1.35 1.34 1.40 1.41 1.49 1.61 1.66 1.70 1.76 1.88 1.96 2.08 2.35 2.51 2.53 2.47 2.39 2.22 2.10 2.04 2.03 2.05 2.10 2.18 2.26 2.17 1.97 1.75 1.59
2.25 2.13 2.01 1.99 1.92 1.77 1.54 1.50 1.56 1.56 1.52 1.59 1.67 1.75 1.69 1.58 1.51 1.50 1.48 1.49 1.62 1.73 1.80 1.87 1.88 1.91 2.06 2.22 2.37 2.40 2.32 2.20 2.08 2.03 2.03 2.02 2.08 2.11 2.09 2.16 2.13 2.07 1.91 1.75
2.22 2.12 1.97 1.98 2.00 1.93 1.81 1.71 1.73 1.72 1.66 1.64 1.67 1.71 1.73 1.74 1.66 1.57 1.50 1.52 1.69 1.74 1.70 1.82 1.90 1.90 2.03 2.25 2.34 2.38 2.38 2.35 2.15 2.08 2.18 2.22 2.22 2.25 2.21 2.28 2.30 2.21 2.00 1.79
2.15 2.16 1.99 1.84 1.86 1.89 1.83 1.76 1.72 1.75 1.75 1.68 1.60 1.55 1.53 1.55 1.68 1.68 1.60 1.54 1.63 1.76 1.78 1.88 1.93 1.90 2.01 2.19 2.38 2.37 2.30 2.30 2.20 2.08 2.15 2.30 2.32 2.32 2.30 2.33 2.31 2.27 2.12 1.94
1.85 1.92 1.86 1.76 1.66 1.65 1.68 1.63 1.68 1.74 1.77 1.71 1.63 1.57 1.58 1.66 1.85 1.99 2.05 1.99 1.89 1.82 1.78 1.80 1.84 1.86 1.92 2.03 2.12 2.14 2.15 2.08 1.94 1.80 1.87 1.98 2.06 2.09 2.14 2.13 2.16 2.17 2.09 1.91
1.68 1.79 1.79 1.72 1.70 1.57 1.61 1.60 1.61 1.65 1.66 1.73 1.74 1.68 1.64 1.70 1.83 1.99 2.18 2.25 2.15 2.01 1.89 1.80 1.88 1.81 1.88 1.95 1.94 1.93 1.91 1.86 1.75 1.59 1.59 1.75 1.82 1.89 1.97 1.95 1.95 1.94 1.85 1.76
1.84 1.87 1.78 1.65 1.72 1.76 1.72 1.71 1.72 1.75 1.62 1.58 1.61 1.69 1.79 1.82 1.92 2.02 2.06 2.10 2.09 2.04 1.94 1.79 1.65 1.61 1.67 1.79 1.89 1.85 1.82 1.81 1.78 1.57 1.52 1.68 1.77 1.88 1.87 1.84 1.86 1.84 1.74 1.71
1.80 1.76 1.69 1.56 1.58 1.58 1.52 1.53 1.58 1.69 1.75 1.67 1.73 1.84 1.92 1.90 1.95 2.13 2.25 2.16 1.88 1.82 1.76 1.75 1.63 1.62 1.61 1.74 1.84 1.82 1.80 1.82 1.89 1.80 1.72 1.74 1.79 1.86 1.81 1.74 1.70 1.68 1.68 1.72
1.75 1.72 1.72 1.70 1.66 1.58 1.43 1.38 1.45 1.56 1.67 1.78 1.87 1.94 2.00 2.05 2.10 2.13 2.07 2.12 1.97 1.98 1.84 1.69 1.63 1.65 1.65 1.64 1.67 1.76 1.79 1.81 1.92 1.92 1.84 1.84 1.92 1.97 1.96 1.88 1.80 1.73 1.71 1.71
1.73 1.76 1.71 1.70 1.74 1.67 1.52 1.44 1.40 1.51 1.62 1.67 1.78 2.00 2.11 2.09 2.16 2.38 2.19 1.84 1.75 1.83 1.78 1.73 1.72 1.66 1.57 1.41 1.50 1.65 1.70 1.75 1.80 1.77 1.66 1.64 1.65 1.70 1.70 1.62 1.60 1.63 1.63 1.62
1.81 1.74 1.71 1.72 1.71 1.62 1.57 1.54 1.51 1.56 1.54 1.53 1.62 1.83 2.07 2.16 2.07 1.97 1.98 1.89 1.71 1.60 1.49 1.54 1.55 1.51 1.52 1.44 1.52 1.64 1.69 1.74 1.73 1.66 1.60 1.56 1.57 1.58 1.57 1.54 1.53 1.55 1.57 1.58
1.82 1.76 1.69 1.69 1.73 1.73 1.65 1.61 1.66 1.65 1.60 1.60 1.60 1.66 1.78 1.95 2.04 1.87 1.65 1.55 1.49 1.36 1.25 1.27 1.28 1.32 1.33 1.35 1.38 1.48 1.66 1.77 1.75 1.61 1.50 1.50 1.51 1.50 1.45 1.40 1.42 1.51 1.54 1.52
1.89 1.86 1.81 1.75 1.70 1.70 1.68 1.72 1.86 1.87 1.91 1.99 1.87 1.72 1.73 1.72 1.73 1.79 1.68 1.50 1.42 1.34 1.18 1.20 1.19 1.17 1.16 1.25 1.28 1.31 1.45 1.64 1.71 1.62 1.47 1.47 1.46 1.45 1.44 1.42 1.35 1.37 1.40 1.41
1.96 1.93 1.87 1.79 1.71 1.61 1.70 1.81 1.91 1.97 2.07 2.19 2.20 2.01 1.86 1.71 1.68 1.72 1.70 1.64 1.49 1.36 1.29 1.26 1.22 1.19 1.17 1.17 1.14 1.13 1.24 1.39 1.47 1.50 1.54 1.55 1.56 1.56 1.51 1.43 1.35 1.30 1.31 1.31